This demonstration page uses our WeatherBlox Daily Observations layout. Learn more.

Left ArrowRight Arrow

41.55636, -103.73856

Hourly Observations for March 1, 2021

Temp ( °F °C ) Dew Point ( °F °C ) Humidity (%) Winds ( mph kmh ) Pressure ( in mb ) Visibility ( mi km ) Precip ( " mm )
12:58 am 00:58 Clear 25 -3.9 9 -12.9 50 50 WNW 16 26 30.31 1026 10 16.0934 0 0
1:58 am 01:58 Clear 25 -3.8 9 -12.9 50 50 NW 18 30 30.33 1027 10 16.0934 0 0
2:58 am 02:58 Clear 24 -4.4 9 -12.9 52 52 W 14 22 30.33 1027 10 16.0934 0 0
3:58 am 03:58 Clear 25 -3.9 8 -13.4 48 48 WNW 24 39 30.33 1027 10 16.0934 0 0
4:58 am 04:58 Clear 25 -4.1 8 -13.4 49 49 WNW 18 30 30.37 1028 10 16.0934 0 0
5:58 am 05:58 Clear 23 -5.1 7 -13.7 51 51 WNW 14 22 30.42 1030 10 16.0934 0 0
6:58 am 06:58 Sunny 21 -6.1 8 -13.4 57 57 W 13 20 30.45 1031 10 16.0934 0 0
7:58 am 07:58 Sunny 26 -3.2 8 -13.1 47 47 W 16 26 30.44 1031 10 16.0934 0 0
8:58 am 08:58 Sunny 32 0 8 -13.5 36 36 WNW 25 41 30.42 1030 10 16.0934 0 0
9:58 am 09:58 Sunny 37 2.6 9 -12.8 31 31 WNW 20 31 30.39 1029 10 16.0934 0 0
11:58 am 11:58 Sunny 43 6.1 11 -11.8 27 27 NW 15 24 30.34 1028 10 16.0934 0 0
12:58 pm 12:58 Sunny 46 7.8 11 -11.8 24 24 WNW 13 20 30.3 1026 10 16.0934 0 0
1:58 pm 13:58 Sunny 46 7.8 11 -11.9 24 24 SSW 9 15 30.27 1025 10 16.0934 0 0
2:58 pm 14:58 Sunny 48 9.1 10 -12.5 20 20 SW 12 19 30.26 1025 10 16.0934 0 0
3:58 pm 15:58 Sunny 48 8.7 8 -13.1 20 20 SW 15 24 30.24 1024 10 16.0934 0 0
4:58 pm 16:58 Sunny 45 7.3 8 -13.4 22 22 SSW 13 20 30.26 1025 10 16.0934 0 0
5:58 pm 17:58 Clear 37 2.6 9 -12.7 32 32 SSW 12 19 30.28 1025 10 16.0934 0 0
6:58 pm 18:58 Clear 35 1.8 10 -12.1 35 35 SW 15 24 30.29 1026 10 16.0934 0 0
7:58 pm 19:58 Clear 34 0.9 11 -11.6 39 39 SW 15 24 30.25 1024 10 16.0934 0 0
8:58 pm 20:58 Clear 31 -0.5 12 -11.1 45 45 SSW 16 26 30.22 1024 10 16.0934 0 0
9:58 pm 21:58 Clear 35 1.7 12 -11.2 38 38 SW 20 31 30.17 1022 10 16.0934 0 0
10:58 pm 22:58 Clear 34 1.1 13 -10.7 41 41 W 15 24 30.14 1021 10 16.0934 0 0
11:58 pm 23:58 Clear 32 0.1 14 -10.1 47 47 W 15 24 30.13 1020 10 16.0934 0 0

Powered by AerisWeather